This demonstration page uses our WeatherBlox Daily Observations layout. Learn more.

Left ArrowRight Arrow

Hourly Observations for January 31, 2020

Temp ( °F °C ) Dew Point ( °F °C ) Humidity (%) Winds ( mph kmh ) Pressure ( in mb ) Visibility ( mi km ) Precip ( " mm )
12:53 am 00:53 Cloudy 33 0.6 26 -3.3 75 75 ENE 5 7 30.23 1024 10 16 N/A
1:53 am 01:53 Cloudy 33 0.6 25 -3.9 72 72 E 3 6 30.21 1023 10 16 N/A
2:53 am 02:53 Cloudy 33 0.6 27 -2.8 78 78 E 5 7 30.21 1023 10 16 N/A
3:53 am 03:53 Cloudy 33 0.6 26 -3.3 75 75 ENE 3 6 30.20 1023 10 16 N/A
4:53 am 04:53 Cloudy 33 0.6 27 -2.8 78 78 NE 5 7 30.19 1022 10 16 N/A
5:53 am 05:53 Cloudy 33 0.6 27 -2.8 78 78 NE 3 6 30.19 1022 10 16 N/A
6:53 am 06:53 Cloudy 34 1.1 26 -3.3 73 73 N N/A 30.20 1023 10 16 N/A
7:53 am 07:53 Cloudy with Light Snow 33 0.6 28 -2.2 82 82 NE 3 6 30.20 1023 6 10 0.00 0.00
8:11 am 08:11 Cloudy with Light Snow 33 0.6 28 -2.2 82 82 ENE 5 7 30.21 1023 2 3 0.00 0.00
8:43 am 08:43 Cloudy with Light Snow 33 0.6 30 -1.1 89 89 N N/A 30.22 1023 2 2 0.00 0.00
8:53 am 08:53 Cloudy with Light Snow 32 undefined 30 -1.1 92 92 NE 3 6 30.20 1023 1 2 0.00 0.00
9:43 am 09:43 Mostly Cloudy with Light Snow 32 undefined 30 -1.1 92 92 ENE 3 6 30.23 1024 1 1 0.01 0.25
9:53 am 09:53 Mostly Cloudy with Snow 32 undefined 30 -1.1 92 92 ENE 3 6 30.22 1023 1 1 0.02 0.51
10:04 am 10:04 Cloudy with Light Snow 32 undefined 31 -0.6 96 96 ENE 3 6 30.23 1024 1 1 0.00 0.00
10:40 am 10:40 Cloudy with Light Snow 33 0.6 31 -0.6 92 92 E 5 7 30.23 1024 1 1 0.01 0.25
10:53 am 10:53 Cloudy with Light Snow 33 0.6 31 -0.6 92 92 E 3 6 30.21 1023 1 1 0.02 0.51
11:07 am 11:07 Cloudy with Light Snow 33 0.6 31 -0.6 92 92 E 3 6 30.23 1024 1 2 0.00 0.00
11:51 am 11:51 Cloudy with Light Snow 34 1 32 undefined 93 93 E 5 7 30.23 1024 2 3 0.01 0.25
11:53 am 11:53 Cloudy with Light Snow 34 1.1 32 undefined 92 92 ENE 5 7 30.21 1023 3 4 0.01 0.25
12:05 pm 12:05 Cloudy with Light Snow 34 1.1 32 undefined 92 92 E 5 7 30.22 1023 2 2 0.00 0.00
12:19 pm 12:19 Cloudy with Light Snow 34 1.1 32 undefined 92 92 E 6 9 30.22 1023 2 3 0.01 0.25
12:41 pm 12:41 Cloudy with Light Snow 35 1.7 32 undefined 89 89 E 3 6 30.21 1023 3 5 0.01 0.25
12:53 pm 12:53 Cloudy with Light Snow 34 1.1 32 undefined 92 92 ENE 3 6 30.19 1022 3 5 0.01 0.25
1:53 pm 13:53 Cloudy with Light Rain 36 2.2 33 0.6 89 89 VRB 3 6 30.16 1021 6 10 0.00 0.00
2:53 pm 14:53 Cloudy with Light Rain 36 2.2 33 0.6 89 89 ENE 3 6 30.15 1021 7 11 0.00 0.00
3:53 pm 15:53 Cloudy 37 2.8 34 1.1 89 89 ENE 3 6 30.14 1021 7 11 0.00 0.00
4:53 pm 16:53 Cloudy 37 2.8 34 1.1 89 89 ENE 3 6 30.15 1021 8 13 N/A
5:53 pm 17:53 Cloudy with Mist and Fog 37 2.8 34 1.1 89 89 NNE 3 6 30.16 1021 5 8 N/A
6:53 pm 18:53 Cloudy with Mist and Fog 37 2.8 34 1.1 89 89 NNE 5 7 30.16 1021 6 10 N/A
7:53 pm 19:53 Cloudy 37 2.8 34 1.1 89 89 NNE 5 7 30.16 1021 7 11 N/A
8:44 pm 20:44 Cloudy with Mist and Fog 37 2.8 34 1.1 89 89 E 3 6 30.17 1022 6 10 N/A
8:53 pm 20:53 Cloudy with Mist and Fog 37 2.8 34 1.1 89 89 E 6 9 30.16 1021 6 10 N/A
9:12 pm 21:12 Cloudy 37 2.8 34 1.1 89 89 E 6 9 30.16 1021 7 11 N/A
9:53 pm 21:53 Cloudy with Mist and Fog 37 2.8 34 1.1 89 89 NE 3 6 30.15 1021 6 10 N/A
10:02 pm 22:02 Cloudy with Mist and Fog 37 2.8 34 1.1 89 89 ENE 5 7 30.17 1022 6 10 N/A
10:53 pm 22:53 Cloudy with Mist and Fog 37 2.8 34 1.1 89 89 E 5 7 30.14 1021 6 10 N/A
11:53 pm 23:53 Cloudy with Mist and Fog 36 2.2 34 1.1 93 93 N N/A 30.14 1021 6 10 N/A

Powered by AerisWeather